Location: Helsinki
(60.1699°N, 24.9384°E)
Time: 23:49:06
(UTC+02:00)

Vanguard 2 Rocket - Pass Details

Date: 26 September 2023
Orbit: 553 x 3312 km, 32.9° (Epoch: 28 November)

Event Time Altitude Azimuth Distance (km) Brightness Sun altitude
Rises 12:24:57 0° 209° (SSW) 6,775 12.0 27.9°
Reaches altitude 10° 12:31:01 10° 195° (SSW) 6,045 12.3 28.1°
Maximum altitude 12:43:24 21° 156° (SSE) 5,341 12.7 28.4°
Drops below altitude 10° 12:55:38 10° 116° (ESE) 5,985 11.6 28.5°
Sets 13:01:31 0° 103° (ESE) 6,696 11.5 28.6°
